www.pogodaiklimat.ru
ПОГОДА в Пожега Ужичка
Время
(UTC), дата
22 9.10
23 9.10
00 10.10
01 10.10
02 10.10
03 10.10
04 10.10
05 10.10
06 10.10
07 10.10
08 10.10
09 10.10
10 10.10
11 10.10
12 10.10
13 10.10
14 10.10
15 10.10
16 10.10
17 10.10
18 10.10
19 10.10
20 10.10
21 10.10
22 10.10
23 10.10
00 11.10
01 11.10
02 11.10
03 11.10
04 11.10
05 11.10
06 11.10
07 11.10
08 11.10
09 11.10
10 11.10
11 11.10
12 11.10
13 11.10
14 11.10
15 11.10
16 11.10
17 11.10
18 11.10
19 11.10
20 11.10
21 11.10
22 11.10
23 11.10
00 12.10
01 12.10
02 12.10
03 12.10
04 12.10
05 12.10
06 12.10
07 12.10
08 12.10
09 12.10
10 12.10
11 12.10
12 12.10
13 12.10
14 12.10
15 12.10
16 12.10
17 12.10
18 12.10
19 12.10
20 12.10
21 12.10
22 12.10
23 12.10
00 13.10
01 13.10
02 13.10
03 13.10
04 13.10
05 13.10
06 13.10
07 13.10
08 13.10
09 13.10
10 13.10
11 13.10
12 13.10
13 13.10
14 13.10
15 13.10
16 13.10
17 13.10
18 13.10
19 13.10
20 13.10
21 13.10
22 13.10
23 13.10
00 14.10
01 14.10
02 14.10
03 14.10
04 14.10
05 14.10
06 14.10
07 14.10
08 14.10
09 14.10
10 14.10
11 14.10
12 14.10
13 14.10
14 14.10
15 14.10
16 14.10
17 14.10
18 14.10
19 14.10
20 14.10
21 14.10
22 14.10
23 14.10
00 15.10
01 15.10
02 15.10
03 15.10
04 15.10
05 15.10
06 15.10
07 15.10
08 15.10
09 15.10
10 15.10
11 15.10
12 15.10
13 15.10
14 15.10
15 15.10
16 15.10
17 15.10
18 15.10
19 15.10
20 15.10
21 15.10
22 15.10
23 15.10
00 16.10
01 16.10
02 16.10
03 16.10
04 16.10
05 16.10
06 16.10
07 16.10
08 16.10
09 16.10
10 16.10
11 16.10
12 16.10
13 16.10
14 16.10
15 16.10
16 16.10
17 16.10
18 16.10
19 16.10
20 16.10
21 16.10
Ветер
(напр.,м/с)
Видим. Явления Облачность Т
(С)
Тd
(С)
f
(%)
Тe
(С)
Тes
(С)
Комфортность P
(гПа)
Po
(гПа)
Тmin
(С)
Tmax
(С)
R
(мм)
R24
(мм)
S
(см)
З 1 20 км ясно +7.8 +7.2 96 +7 +7 тепло 1018.0 980.4
штиль 0 15 км ясно +7.0 +6.6 97 +6 +6 тепло 1018.8 981.0
штиль 0 15 км ясно +6.5 +6.2 98 +5 +5 тепло 1019.2 981.4
штиль 0 15 км ясно +6.0 +3.8 86 +5 +5 тепло 1018.8 980.9
ЮЗ 1 15 км ясно +5.8 +5.3 97 +4 +4 по сезону 1018.5 980.6
СЗ 1 10 км ясно +5.5 +5.1 97 +4 +4 по сезону 1018.3 980.4
штиль 0 10 км 1/1 1000 м
[Sc]
+5.0 +4.5 97 +4 +4 по сезону 1018.3 980.3
З 1 10 км 6/4 1000 м
[Sc Ci fib]
+5.2 +4.9 98 +4 +4 по сезону 1018.4 980.4
Ю 1 15 км 9/1 1000 м
[Sc Ci sp]
+6.9 +6.0 94 +6 +6 тепло 1018.2 980.6 +5.0
штиль 0 15 км 9/1 1000 м
[Sc Ci sp]
+8.1 +7.7 97 +7 +9 тепло 1018.7 981.1
Ю 1 15 км 5/0
[Ci sp]
+11.5 +9.8 89 +11 +16 тепло 1018.6 981.5
ЮВ 1 20 км 5/1 1000 м
[Cu hum Ac lent]
+15.8 +10.6 71 +17 +21 тепло 1017.7 981.3
СЗ 1 20 км 8/8 1000 м
[Cu Sc]
+18.4 +10.8 61 +20 +22 тепло 1016.9 980.7
З 1 20 км 9/9 1000 м
[Cu Sc]
+20.0 +10.9 56 +23 +24 комфорт 1015.6 979.7
С 1 20 км 9/9 1000 м
[Cu Sc]
+20.9 +11.5 55 +24 +25 комфорт 1014.7 978.9
Ю 1 20 км 8/8 1000 м
[Cu Sc]
+22.2 +11.1 49 +24 +25 комфорт 1013.9 978.3
штиль 0 20 км в посл. час дождь 9/9 1000 м
[Sc]
+20.3 +14.9 71 +23 +23 комфорт 1014.0 978.2
ЮВ 1 15 км {дождь} 9/9 600 м
[Cu Sc]
+19.2 +14.3 73 +22 +22 комфорт 1014.3 978.3
З 1 15 км 6/5 600 м
[Cu Sc Ci fib]
+17.9 +12.8 72 +19 +19 тепло 1015.1 979.0
Ю 1 15 км 6/6 1000 м
[Cu Sc]
+16.1 +13.2 83 +17 +17 тепло 1016.4 979.9
СЗ 3 15 км 6/6 1000 м
[Sc]
+15.7 +13.4 86 +15 +15 тепло 1018.1 981.4 +22.5 0.1
СЗ 1 20 км 5/5 1000 м
[Sc]
+14.8 +11.4 80 +15 +15 тепло 1019.6 982.8
СЗ 1 10 км слаб. дождь 10/10 1000 м
[Sc]
+13.9 +10.9 82 +14 +14 тепло 1021.3 984.4
СЗ 2 10 км слаб. дождь 10/10 1000 м
[Sc]
+12.0 +11.2 95 +11 +11 тепло 1022.9 985.6
штиль 0 10 км слаб. дождь 10/10 1000 м
[Sc]
+11.1 +10.6 97 +10 +10 тепло 1025.0 986.5
З 1 10 км слаб. дождь 10/10 1000 м
[Sc]
+11.0 +10.6 97 +11 +11 тепло 1024.4 986.9
СЗ 1 10 км слаб. дождь 10/10 1000 м
[Sc]
+10.8 +10.6 99 +10 +10 тепло 1024.8 987.3 7
СЗ 1 10 км в посл. час дождь 10/10 1000 м
[Sc]
+10.8 +10.6 99 +10 +10 тепло 1024.7 987.2
штиль 0 10 км {дождь} 10/10 1000 м
[Sc]
+10.7 +10.5 99 +10 +10 тепло 1025.0 987.5
штиль 0 10 км 10/10 1000 м
[Sc]
+10.0 +9.8 99 +9 +9 тепло 1025.5 988.0
З 1 10 км 10/10 1000 м
[Sc]
+9.8 +9.7 99 +9 +9 тепло 1026.0 988.5
штиль 0 600 м туман ?/? +9.8 +9.7 99 +9 +9 тепло 1026.8 989.1
СЗ 1 2000 м дымка {туман} 10/10 600 м
[St]
+9.9 +9.5 97 +9 +9 тепло 1027.6 989.9 +9.7 7
ЮВ 1 2000 м дымка {туман} 10/10 600 м
[St]
+10.1 +9.5 96 +10 +10 тепло 1028.1 990.4
штиль 0 3000 м дымка {туман} 10/10 600 м
[St]
+10.7 +10.0 95 +10 +10 тепло 1028.4 990.8
СВ 1 10 км 4/4 600 м
[Cu hum]
+12.2 +9.7 85 +12 +17 тепло 1028.2 990.7
СЗ 1 20 км 1/1 600 м
[Cu hum]
+14.8 +10.6 76 +15 +24 тепло 1027.1 990.1
ЮВ 2 20 км 1/1 600 м
[Cu hum]
+17.4 +9.7 61 +18 +25 тепло 1026.0 989.3
СВ 2 30 км ясно +18.5 +6.6 46 +19 +26 тепло 1025.2 988.7
В 2 30 км ясно +19.1 +6.2 43 +20 +25 тепло 1024.5 988.0
В 2 30 км ясно +19.2 +6.4 43 +20 +23 тепло 1024.2 987.7
В 1 30 км ясно +18.7 +5.8 43 +20 +21 тепло 1023.7 987.3
В 1 30 км ясно +17.1 +6.6 50 +18 +18 тепло 1023.9 987.2
СЗ 1 30 км ясно +12.6 +8.1 74 +13 +13 тепло 1024.6 987.4
СЗ 1 20 км ясно +10.2 +8.3 88 +10 +10 тепло 1025.1 987.5 +19.5
СЗ 1 20 км ясно +8.5 +7.2 92 +8 +8 тепло 1025.6 987.8
штиль 0 20 км ясно +7.4 +6.4 93 +6 +6 тепло 1026.0 988.1
штиль 0 20 км ясно +6.4 +5.6 95 +5 +5 тепло 1026.7 988.5
З 1 20 км ясно +5.5 +5.1 97 +4 +4 по сезону 1026.8 988.6
штиль 0 20 км ясно +5.0 +4.7 98 +4 +4 по сезону 1026.9 988.6
штиль 0 20 км ясно +4.2 +4.0 99 +3 +3 по сезону 1027.1 988.6
штиль 0 20 км ясно +3.9 +3.8 99 +3 +3 по сезону 1027.1 988.6
В 1 8000 м дымка 8/8 600 м
[St]
+3.9 +3.8 99 +2 +2 по сезону 1026.8 988.3
СЗ 1 600 м туман ?/? +4.2 +4.0 99 +3 +3 по сезону 1026.8 988.3
штиль 0 600 м туман ?/? +4.7 +4.5 99 +3 +3 по сезону 1026.6 988.3
СЗ 1 600 м туман ?/? +5.0 +4.7 98 +3 +3 по сезону 1026.4 988.1
З 1 600 м туман ?/? +5.2 +4.9 98 +4 +4 по сезону 1026.8 988.5 +3.7
штиль 0 400 м туман ?/? +5.5 +5.1 97 +4 +4 по сезону 1026.9 988.7
штиль 0 400 м туман ?/? +6.1 +5.8 98 +5 +5 тепло 1027.0 988.8
штиль 0 10 км в посл. час туман ясно +8.1 +7.6 97 +7 +15 тепло 1026.0 988.1
З 1 10 км {туман} ясно +13.3 +10.2 81 +13 +22 тепло 1024.8 987.6
ЮЗ 1 15 км ясно +17.4 +9.4 59 +18 +28 тепло 1023.5 986.8
Ю 1 20 км {туман} ясно +21.6 +10.5 49 +23 +31 комфорт 1021.9 985.9
ЮВ 1 20 км ясно +24.0 +10.5 43 +25 +31 комфорт 1020.1 985.4
В 1 20 км ясно +25.1 +10.9 41 +26 +29 жарко 1020.2 984.7
В 1 20 км ясно +24.6 +10.8 42 +26 +27 жарко 1020.2 984.6
З 1 20 км ясно +21.3 +10.6 50 +23 +23 комфорт 1020.5 984.4
СЗ 1 20 км ясно +16.1 +14.1 88 +17 +17 тепло 1022.0 985.4
СЗ 1 20 км ясно +13.5 +13.0 97 +14 +14 тепло 1022.7 985.8 +25.5
штиль 0 20 км ясно +11.4 +11.1 98 +11 +11 тепло 1023.6 986.3
штиль 0 20 км ясно +10.1 +9.7 97 +9 +9 тепло 1024.4 986.8
Ю 1 20 км ясно +8.8 +8.5 98 +8 +8 тепло 1024.9 987.2
штиль 0 20 км ясно +7.7 +7.4 98 +7 +7 тепло 1024.9 987.0
СЗ 1 15 км ясно +7.5 +7.2 98 +6 +6 тепло 1024.9 987.0
штиль 0 15 км ясно +6.5 +6.2 98 +5 +5 тепло 1025.3 987.3
штиль 0 15 км ясно +6.0 +5.6 97 +5 +5 тепло 1025.2 987.1
штиль 0 8000 м дымка 8/8 600 м
[St]
+6.0 +5.6 97 +5 +5 тепло 1025.1 987.0
штиль 0 300 м туман ?/? +6.7 +6.7 100 +6 +6 тепло 1025.1 987.1
штиль 0 300 м туман ?/? +7.0 +6.8 99 +6 +6 тепло 1025.1 987.1
СЗ 1 500 м туман ?/? +6.9 +6.8 99 +6 +6 тепло 1025.3 987.3
штиль 0 500 м туман ?/? +7.3 +7.2 99 +6 +6 тепло 1025.9 987.9 +6.0
штиль 0 500 м туман ?/? +7.5 +7.4 99 +6 +6 тепло 1026.0 988.1
С 1 800 м туман ?/? +8.0 +7.7 98 +7 +7 тепло 1026.0 988.1
СЗ 1 6000 м в посл. час туман 8/8 600 м
[St]
+10.0 +9.5 97 +9 +11 тепло 1025.3 987.7
ЮВ 1 15 км 4/0
[Ci fib]
+15.0 +11.1 77 +16 +24 тепло 1023.6 986.8
СВ 1 20 км 4/0
[Ci fib]
+19.3 +12.0 63 +22 +30 комфорт 1022.2 985.9
штиль 0 20 км 4/0
[Ci fib]
+22.3 +8.1 40 +23 +32 комфорт 1021.1 985.1
Ю 1 20 км 3/0
[Ci fib]
+25.2 +7.4 32 +25 +30 комфорт 1020.4 984.8
штиль 0 20 км 3/0
[Ci fib]
+26.8 +7.9 30 +27 +30 жарко 1019.7 984.4
штиль 0 20 км 4/0
[Ci fib]
+25.4 +7.7 32 +25 +26 комфорт 1019.6 984.0
СЗ 1 20 км 5/0
[Ci fib]
+19.8 +13.0 65 +23 +23 комфорт 1020.1 984.0
СЗ 1 20 км 6/0
[Ci fib]
+15.2 +13.5 90 +16 +16 тепло 1021.7 984.8
СЗ 1 20 км 9/0
[Ci sp]
+12.1 +10.6 91 +12 +12 тепло 1022.5 985.3 +26.8
штиль 0 20 км 9/0
[Ci sp]
+10.4 +9.5 94 +10 +10 тепло 1023.5 985.9
З 1 10 км 8/0
[Ci sp]
+9.2 +8.5 95 +8 +8 тепло 1024.0 986.3
штиль 0 10 км ясно +8.0 +7.6 97 +7 +7 тепло 1024.5 986.6
штиль 0 10 км ясно +7.0 +6.6 97 +6 +6 тепло 1024.6 986.6
штиль 0 10 км ясно +6.6 +6.2 97 +5 +5 тепло 1024.6 986.6
штиль 0 10 км ясно +5.8 +5.3 97 +5 +5 тепло 1024.9 986.8
штиль 0 10 км ясно +5.0 +4.5 97 +4 +4 по сезону 1024.6 986.4
штиль 0 10 км ясно +4.9 +4.5 97 +4 +4 по сезону 1024.6 986.4
штиль 0 300 м туман ?/? +5.3 +4.9 97 +4 +4 по сезону 1024.6 986.4
штиль 0 200 м туман ?/? +5.7 +5.6 99 +5 +5 тепло 1024.5 986.4
штиль 0 200 м туман ?/? +6.0 +5.8 99 +5 +5 тепло 1024.5 986.4
штиль 0 200 м туман ?/? +6.5 +6.4 99 +5 +5 тепло 1024.7 986.7 +4.7
штиль 0 500 м туман ?/? +6.7 +6.6 99 +6 +6 тепло 1024.9 986.9
штиль 0 800 м туман ?/? +7.7 +7.6 99 +7 +7 тепло 1024.6 986.7
штиль 0 10 км в посл. час туман 1/0
[Ci fib]
+10.9 +10.0 94 +10 +18 тепло 1023.7 986.3
Ю 1 15 км 3/0
[Ci fib]
+16.1 +9.0 63 +17 +25 тепло 1022.1 985.4
штиль 0 15 км 3/0
[Ci fib]
+20.5 +9.7 50 +22 +31 комфорт 1020.0 984.1
Ю 1 20 км {туман} 4/0
[Ci fib]
+23.4 +9.8 42 +25 +32 комфорт 1018.9 983.1
ЮЗ 1 20 км 4/0
[Ci fib]
+25.2 +9.4 37 +26 +31 жарко 1018.0 982.5
ЮВ 1 20 км 4/0
[Ci fib]
+26.1 +9.2 34 +26 +29 жарко 1017.5 982.1
ЮВ 1 20 км 4/0
[Ci fib]
+25.1 +10.9 41 +26 +27 жарко 1017.3 981.9
СЗ 1 20 км 3/0
[Ci fib]
+20.4 +13.0 62 +24 +24 комфорт 1018.0 982.0
СЗ 1 20 км ясно +16.2 +14.3 89 +17 +17 тепло 1019.3 982.6
СЗ 1 20 км ясно +12.5 +12.0 97 +12 +12 тепло 1020.0 983.0 +26.4
штиль 0 20 км ясно +10.7 +10.2 97 +10 +10 тепло 1020.5 983.2
штиль 0 20 км ясно +9.2 +8.8 97 +8 +8 тепло 1020.8 983.2
штиль 0 20 км ясно +8.0 +7.6 97 +7 +7 тепло 1020.8 983.2
штиль 0 15 км ясно +6.8 +6.4 97 +6 +6 тепло 1020.7 983.0
штиль 0 10 км ясно +6.3 +6.0 98 +5 +5 тепло 1021.3 983.3
штиль 0 10 км ясно +5.6 +5.1 97 +4 +4 по сезону 1021.2 983.2
штиль 0 10 км ясно +4.7 +4.2 97 +4 +4 по сезону 1021.0 982.9
штиль 0 10 км ясно +4.2 +3.8 97 +3 +3 по сезону 1021.1 982.8
штиль 0 10 км ясно +3.7 +3.5 99 +2 +2 по сезону 1021.1 982.8
штиль 0 6000 м дымка ясно +4.2 +4.0 99 +3 +3 по сезону 1021.2 982.9
штиль 0 300 м туман ?/? +4.9 +4.7 99 +4 +4 по сезону 1021.2 982.9
штиль 0 100 м туман ?/? +5.1 +5.1 100 +4 +4 по сезону 1021.4 983.3 +3.7
СЗ 1 100 м туман ?/? +5.9 +5.8 99 +5 +5 тепло 1021.4 983.4
ЮЗ 1 200 м туман ?/? +6.8 +6.6 99 +6 +6 тепло 1020.9 983.1
З 1 10 км в посл. час туман ясно +9.4 +9.0 97 +9 +16 тепло 1019.9 982.4
штиль 0 20 км ясно +15.0 +8.5 65 +15 +25 тепло 1018.4 981.7
ЮВ 1 20 км ясно +20.1 +7.2 43 +22 +31 комфорт 1016.7 980.6
штиль 0 20 км ясно +23.6 +5.1 30 +23 +32 комфорт 1015.3 979.8
штиль 0 20 км ясно +26.2 +5.8 27 +26 +32 жарко 1014.0 978.7
Ю 1 20 км ясно +27.1 +4.2 23 +26 +29 жарко 1013.3 978.2
Ю 1 20 км ясно +25.3 +4.5 26 +25 +25 комфорт 1013.5 978.1
СЗ 1 20 км ясно +19.6 +10.6 56 +22 +22 комфорт 1014.1 978.1
СЗ 1 20 км ясно +15.6 +9.2 66 +16 +16 тепло 1015.1 978.6
СЗ 1 20 км ясно +12.1 +7.7 74 +12 +12 тепло 1015.9 978.9 +27.3
штиль 0 20 км ясно +9.8 +7.9 88 +9 +9 тепло 1016.5 979.2
штиль 0 20 км ясно +8.3 +7.0 92 +7 +7 тепло 1017.4 979.8
штиль 0 20 км ясно +7.4 +6.4 93 +6 +6 тепло 1017.6 979.9
З 1 20 км ясно +6.5 +5.8 95 +5 +5 тепло 1017.8 980.1
штиль 0 20 км ясно +5.5 +4.9 96 +4 +4 по сезону 1018.5 980.6
штиль 0 15 км ясно +4.4 +4.0 97 +3 +3 по сезону 1019.2 981.0
СЗ 1 15 км ясно +4.0 +3.5 97 +2 +2 по сезону 1019.2 981.1
СЗ 1 15 км ясно +3.4 +3.0 97 +2 +2 по сезону 1019.5 981.2
штиль 0 15 км ясно +3.0 +2.5 97 +2 +2 по сезону 1019.5 981.2
штиль 0 15 км ясно +2.5 +2.3 99 +1 +1 по сезону 1019.5 981.2
штиль 0 600 м туман ?/? +2.5 +2.3 99 +1 +1 по сезону 1019.5 981.2
ЮВ 1 600 м туман ?/? +3.0 +2.8 99 +1 +1 по сезону 1019.9 981.5 +2.5
штиль 0 10 км в посл. час туман ясно +5.8 +5.3 97 +5 +7 тепло 1020.1 982.2
ЮВ 1 10 км ясно +9.8 +8.3 90 +9 +14 тепло 1019.5 982.1
В 1 10 км ясно +14.1 +8.3 68 +15 +21 тепло 1018.0 982.1
ЮВ 1 15 км ясно +18.8 +7.6 48 +20 +29 тепло 1017.9 981.7
ЮВ 1 20 км ясно +23.3 +8.1 38 +24 +33 комфорт 1016.1 980.4
С 1 20 км {туман} 1/0
[Ci fib]
+25.9 +8.1 32 +26 +33 жарко 1014.9 979.7
З 2 20 км 1/0
[Ci fib]
+26.7 +8.1 31 +27 +31 жарко 1014.4 979.4
СЗ 2 20 км 1/0
[Ci fib]
+26.6 +8.3 31 +27 +29 жарко 1014.9 978.9
СЗ 2 20 км ясно +25.8 +10.3 38 +27 +27 жарко 1013.8 978.7
штиль 0 20 км ясно +20.9 +13.0 61 +23 +23 комфорт 1014.7 978.8
З 2 20 км 1/1 1000 м
[Sc]
+17.5 +13.1 75 +18 +18 тепло 1016.0 979.8
С 1 20 км 3/3 1000 м
[Sc]
+15.1 +13.2 88 +16 +16 тепло 1016.8 980.3 +26.6
С 1 20 км 1/1 1000 м
[Sc]
+13.5 +12.8 96 +14 +14 тепло 1017.5 980.8
штиль 0 20 км 3/3 1000 м
[Sc]
+11.6 +11.2 97 +11 +11 тепло 1018.3 981.3
С 1 20 км 3/3 1000 м
[Sc]
+10.3 +10.0 98 +10 +10 тепло 1019.1 981.7
Местоположение метеостанции Пожега Ужичка (Сербия): широта 43.83 долгота 20.03 высота над уровнем моря 312 м.
В архиве по умолчанию представлена погода в Пожега Ужичка за последнюю неделю. Архивные данные за месяц целиком и за предыдущие месяцы, начиная с января 2011 года, Вы можете получить, выбрав интересующий диапазон дат из раскрывающегося списка и нажав кнопку "Найти!".
*Определитесь, кто Вы:
Внимание! Время в таблицах - всемирное. Для получения местного времени необходимо прибавить поправку, которая равна 1 ч.
Смотрите также архив погоды в соседних городах и на ближайших метеорологических станциях:
Партнеры нашего сайта:      
Пояснения к столбцам:
  • Ветер - указаны скорость ветра в м/с - средняя за 10 мин, порывы в срок и между сроками (в фигурных скобках) и направление, откуда дует ветер: С - северный,
  • СВ - северо-восточный, В - восточный, ЮВ - юго-восточный, Ю - южный, ЮЗ - юго-западный, З - западный, СЗ - северо-западный.
  • Видимость - горизонтальная дальность видимости в метрах или километрах. При видимости от 1 до 10 км при отсутствии осадков обычно наблюдается дымка, при ухудшении видимости до 1 км и менее - туман. В сухую погоду видимость может ухудшаться дымом, пылью или мглою.
  • Явления - указаны атмосферные явления, наблюдавшиеся в срок или в последний час перед сроком; фигурными скобками обозначены явления, наблюдавшиеся между сроками (за 1-3 часа до срока); квадратными скобками обозначены град или гололедные отложения с указанием их диаметра в мм.
  • Облачность - указаны через наклонную черту общая и нижняя облачность в баллах и высота нижней границы облаков в метрах; квадратными скобками обозначены формы облаков: Ci - перистые, Cs - перисто-слоистые, Cc - перисто-кучевые, Ac - высококучевые, As - высокослоистые, Sc - слоисто-кучевые, Ns - слоисто-дождевые, Cu - кучевые, Cb - кучево-дождевые. Подробнее классификацию облаков см. в Атласе облаков (PDF).
  • T - Температура воздуха - температура, измеренная на высоте 2 м над землей.
  • Td - Температура точки росы - температура, при понижении до которой содержащийся в воздухе водяной пар достигнет насыщения.
  • f - Относительная влажность воздуха - влажноcть воздуха, измеренная на высоте 2 м над землей.
  • Te - Эффективная температура - температура, которую ощущает одетый по сезону человек в тени. Характеристика душности погоды. При расчете учитывается влияние влажности воздуха и скорости ветра на теплоощущения человека.
  • Tes - Эффективная температура на солнце - температура, которую ощущает человек, с поправкой на солнечный нагрев. Характеристика знойности погоды. Зависит от высоты солнца над горизонтом, облачности и скорости ветра. Ночью, в пасмурную погоду, а также при ветре 12 м/с и более поправка равна нулю.
  • P - Атмосферное давление - приведенное к уровню моря атмосферное давление.
  • Po - Атмосферное давление - измеренное на уровне метеостанции атмосферное давление.
  • Tmin - Минимальная температура - минимум температуры воздуха на высоте 2 м над землей.
  • Tmax - Максимальная температура - максимум температуры воздуха на высоте 2 м над землей.
  • R - Количество осадков - Количество выпавших осадков за период времени, мм. При наведении курсора мыши на число - период времени, за который выпало указанное количество осадков.
  • R24 - Количество осадков - Количество выпавших осадков за 24 часа, мм.
  • S - Снежный покров - Высота снежного покрова, см. При наведении курсора мыши на число - состояние снежного покрова и степень покрытия местности в баллах.